Regional Weather Roundup
Issued by NWS

Home | Current Version | Previous Version | Text Only | Print | Product List | Glossary On
Versions: 1 2 3 4 5 6 7 8 9 10 11 12 13 14 15 16 17 18 19 20 21 22 23 24 25 26 27 28 29 30 31 32 33 34 35 36 37 38 39 40 41 42 43 44 45 46 47 48 49 50
000
ASUS44 KMEG 250710
RWRTN
TENNESSEE HOURLY STATE WEATHER ROUNDUP
NATIONAL WEATHER SERVICE MEMPHIS TN
200 AM CDT SAT MAR 25 2017

TNZ002-004-019-021-049-052-054-088>092-250800-
WEST TENNESSEE

CITY           SKY/WX    TMP DP  RH WIND       PRES   REMARKS
MEMPHIS INTL   CLOUDY    70  59  68 S20G25    29.98R
NWS MEMPHIS      N/A     68 N/A N/A MISG        N/A
JACKSON        CLOUDY    68  58  70 S15G25    30.01S
DYERSBURG      CLOUDY    68  58  70 S14G22    29.98F
SOMERVILLE     PTCLDY    68  59  73 S15G24    29.99S
BOLIVAR        MOCLDY    68  57  68 SE14G22   30.00F
PARIS          CLEAR     64  54  68 S15       30.01F
HUNTINGDON     PTCLDY    68  55  64 S17G28    30.01S
SAVANNAH       PTCLDY    66  55  68 S13       30.05F
$$

TNZ008-025-027-028-033-062-065-066-250800-
NORTH MIDDLE TENNESSEE

CITY           SKY/WX    TMP DP  RH WIND       PRES   REMARKS
NASHVILLE      MOCLDY    62  51  67 SE7       30.10F
PORTLAND       CLOUDY    63  50  63 S12       30.10F
CLARKSVILLE    CLOUDY    66  52  60 S12       30.04F
SMYRNA         MOCLDY    58  52  80 SE5       30.12F
COOKEVILLE     CLOUDY    63  50  63 S8        30.16R
GALLATIN       MOCLDY    63  50  63 SE3       30.14F
CROSSVILLE     CLEAR     59  46  62 S8        30.21S
$$

TNZ061-075-076-078-094-096-097-250800-
SOUTH MIDDLE TENNESSEE

CITY           SKY/WX    TMP DP  RH WIND       PRES   REMARKS
FAYETTEVILLE   CLOUDY    64  52  63 S9        30.15F
TULLAHOMA      CLEAR     64  46  52 S10       30.16F
WINCHESTER     PTCLDY    64  50  59 S16       30.16F
MCMINNVILLE    CLEAR     64  50  59 VRB6      30.16F
COLUMBIA       CLEAR     66  54  63 S14       30.08S
SHELBYVILLE    CLEAR     66  52  59 SE13      30.14F
$$

TNZ017-018-042-046-047-250800-
NORTHEAST TENNESSEE

CITY           SKY/WX    TMP DP  RH WIND       PRES   REMARKS
TRI CITIES     CLOUDY    53  46  77 CALM      30.25F
ELIZABETHTON   CLOUDY    52  46  82 CALM      30.26F
$$

TNZ012-013-036-069-073-074-250800-
CENTRAL EAST TENNESSEE

CITY           SKY/WX    TMP DP  RH WIND       PRES   REMARKS
KNOXVILLE      MOCLDY    58  46  64 E3        30.18F
OAK RIDGE      PTCLDY    54  46  74 CALM      30.21F
DOWNTOWN KNOXV PTCLDY    52  50  93 CALM      30.20F
GATLINBURG     CLEAR     54  46  76 CALM      30.20S
MORRISTOWN     MOCLDY    57  48  72 CALM      30.20F
JACKSBORO      PTCLDY    55  46  71 CALM      30.23S
$$

TNZ083-085-099-250800-
SOUTHEAST TENNESSEE

CITY           SKY/WX    TMP DP  RH WIND       PRES   REMARKS
CHATTANOOGA    MOCLDY    64  48  56 S6        30.20S
$$

SKY/WX REPORTED AS FAIR MEANS FEW OR NO CLOUDS BELOW
12 THOUSAND FEET.





USA.gov is the U.S. government's official web portal to all federal, state and local government web resources and services.